FT5 OEMA-OEDF

Flight info

Callsign FT5
Flight time 1h 48m
Altitude 31000
Route MIXUG Q46 GAS L604 UMENA
Aircraft SF50/L-SDGRWY/L

Departure

Time 2026-05-04 23:46
Airport Prince Mohammad Bin Abdulaziz Airport (OEMA)

Arrival

Time 2026-05-05 01:35
Airport King Fahd International Airport (OEDF)
Time Latitude Longitude Altitude Speed Heading
2026-05-04 23:38 24.54807 39.71431 2098 ft 0 kts 79°
2026-05-04 23:42 24.54810 39.71428 2098 ft 3 kts 257°
2026-05-04 23:43 24.54804 39.71407 2098 ft 3 kts 252°
2026-05-04 23:43 24.54799 39.71387 2098 ft 3 kts 259°
2026-05-04 23:43 24.54794 39.71351 2099 ft 6 kts 261°
2026-05-04 23:43 24.54816 39.71305 2099 ft 9 kts 314°
2026-05-04 23:44 24.54841 39.71233 2099 ft 12 kts 276°
2026-05-04 23:44 24.54831 39.71136 2100 ft 14 kts 261°
2026-05-04 23:44 24.54831 39.71038 2104 ft 12 kts 303°
2026-05-04 23:44 24.54875 39.70966 2106 ft 11 kts 278°
2026-05-04 23:45 24.54909 39.70914 2107 ft 7 kts 348°
2026-05-04 23:45 24.54927 39.70910 2107 ft 0 kts 349°
2026-05-04 23:45 24.55087 39.70873 2106 ft 54 kts 344°
2026-05-04 23:46 24.55647 39.70745 2116 ft 107 kts 348°
2026-05-04 23:46 24.56421 39.70620 2530 ft 111 kts 348°
2026-05-04 23:46 24.57199 39.70469 3049 ft 116 kts 347°
2026-05-04 23:46 24.58052 39.70238 3470 ft 132 kts 345°
2026-05-04 23:47 24.58949 39.70018 4091 ft 139 kts 345°
2026-05-04 23:47 24.59948 39.69822 4557 ft 153 kts 345°
2026-05-04 23:47 24.61068 39.69584 4724 ft 175 kts 345°
2026-05-04 23:47 24.62282 39.69332 5112 ft 178 kts 344°
2026-05-04 23:48 24.63501 39.69071 5510 ft 179 kts 343°
2026-05-04 23:48 24.64737 39.68811 5933 ft 182 kts 343°
2026-05-04 23:48 24.65968 39.68554 6367 ft 182 kts 343°
2026-05-04 23:48 24.67216 39.68295 6762 ft 183 kts 342°
2026-05-04 23:49 24.68472 39.68020 7171 ft 185 kts 342°
2026-05-04 23:49 24.69737 39.67751 7585 ft 185 kts 342°
2026-05-04 23:49 24.71008 39.67478 7996 ft 187 kts 342°
2026-05-04 23:49 24.72291 39.67206 8388 ft 189 kts 342°
2026-05-04 23:50 24.73579 39.66925 8787 ft 189 kts 341°
2026-05-04 23:50 24.74902 39.66784 9163 ft 200 kts
2026-05-04 23:50 24.76125 39.67589 9578 ft 213 kts 39°
2026-05-04 23:50 24.77185 39.68736 9996 ft 215 kts 39°
2026-05-04 23:51 24.78282 39.69865 10364 ft 217 kts 37°
2026-05-04 23:51 24.79404 39.70985 10726 ft 219 kts 37°
2026-05-04 23:51 24.80533 39.72128 11103 ft 221 kts 38°
2026-05-04 23:51 24.81672 39.73285 11457 ft 224 kts 38°
2026-05-04 23:52 24.82821 39.74453 11830 ft 225 kts 39°
2026-05-04 23:52 24.83978 39.75627 12218 ft 227 kts 39°
2026-05-04 23:52 24.85150 39.76811 12587 ft 230 kts 38°
2026-05-04 23:52 24.86332 39.78005 12964 ft 232 kts 39°
2026-05-04 23:53 24.87507 39.79196 13309 ft 234 kts 39°
2026-05-04 23:53 24.88710 39.80418 13680 ft 236 kts 39°
2026-05-04 23:53 24.89913 39.81641 14031 ft 235 kts 41°
2026-05-04 23:53 24.91114 39.82866 14360 ft 236 kts 41°
2026-05-04 23:54 24.92320 39.84098 14686 ft 236 kts 41°
2026-05-04 23:54 24.93539 39.85326 15000 ft 238 kts 41°
2026-05-04 23:54 24.94762 39.86566 15314 ft 239 kts 41°
2026-05-04 23:54 24.95989 39.87815 15618 ft 241 kts 41°
2026-05-04 23:55 24.97225 39.89072 15920 ft 244 kts 41°
2026-05-04 23:55 24.98476 39.90343 16216 ft 245 kts 41°
2026-05-04 23:55 25.00994 39.92904 16844 ft 247 kts 41°
2026-05-04 23:56 25.02259 39.94191 17141 ft 248 kts 41°
2026-05-04 23:56 25.03529 39.95483 17437 ft 249 kts 41°
2026-05-04 23:56 25.04786 39.96766 17723 ft 250 kts 41°
2026-05-04 23:56 25.06066 39.98070 18020 ft 251 kts 41°
2026-05-04 23:57 25.07351 39.99382 18319 ft 252 kts 41°
2026-05-04 23:57 25.08641 40.00695 18565 ft 253 kts 41°
2026-05-04 23:57 25.09935 40.02017 18797 ft 254 kts 41°
2026-05-04 23:57 25.11238 40.03346 19018 ft 256 kts 41°
2026-05-04 23:58 25.12550 40.04683 19269 ft 257 kts 41°
2026-05-04 23:58 25.13864 40.06023 19504 ft 258 kts 40°
2026-05-04 23:58 25.15186 40.07372 19752 ft 260 kts 40°
2026-05-04 23:58 25.16519 40.08731 19983 ft 261 kts 40°
2026-05-04 23:59 25.17856 40.10099 20215 ft 263 kts 40°
2026-05-04 23:59 25.19202 40.11474 20448 ft 264 kts 40°
2026-05-04 23:59 25.20554 40.12855 20674 ft 265 kts 40°
2026-05-04 23:59 25.21891 40.14225 20917 ft 266 kts 40°
2026-05-05 00:00 25.23267 40.15632 21155 ft 266 kts 40°
2026-05-05 00:00 25.23708 40.16084 21229 ft 267 kts 40°
2026-05-05 00:00 25.25743 40.18633 21618 ft 270 kts 61°
2026-05-05 00:00 25.26415 40.20562 21868 ft 269 kts 79°
2026-05-05 00:01 25.26770 40.22584 22106 ft 269 kts 81°
2026-05-05 00:01 25.27151 40.24608 22347 ft 269 kts 81°
2026-05-05 00:01 25.27534 40.26636 22580 ft 270 kts 81°
2026-05-05 00:01 25.27909 40.28677 22811 ft 271 kts 81°
2026-05-05 00:02 25.28282 40.30720 23049 ft 271 kts 81°
2026-05-05 00:02 25.28659 40.32765 23297 ft 272 kts 81°
2026-05-05 00:02 25.29037 40.34819 23534 ft 272 kts 81°
2026-05-05 00:02 25.29414 40.36878 23747 ft 273 kts 81°
2026-05-05 00:03 25.29789 40.38939 23944 ft 274 kts 81°
2026-05-05 00:03 25.30169 40.41007 24142 ft 275 kts 81°
2026-05-05 00:03 25.30550 40.43086 24342 ft 276 kts 81°
2026-05-05 00:03 25.30923 40.45140 24557 ft 276 kts 81°
2026-05-05 00:04 25.31306 40.47226 24767 ft 277 kts 81°
2026-05-05 00:04 25.31687 40.49321 24950 ft 278 kts 81°
2026-05-05 00:04 25.32069 40.51421 25146 ft 279 kts 81°
2026-05-05 00:04 25.32454 40.53523 25361 ft 279 kts 81°
2026-05-05 00:05 25.32839 40.55635 25559 ft 280 kts 81°
2026-05-05 00:05 25.33225 40.57752 25760 ft 281 kts 81°
2026-05-05 00:05 25.33611 40.59872 25967 ft 281 kts 81°
2026-05-05 00:05 25.33996 40.61995 26168 ft 282 kts 81°
2026-05-05 00:06 25.34383 40.64123 26372 ft 283 kts 81°
2026-05-05 00:06 25.34766 40.66233 26566 ft 284 kts 81°
2026-05-05 00:06 25.35154 40.68374 26768 ft 284 kts 81°
2026-05-05 00:06 25.35541 40.70520 26967 ft 285 kts 81°
2026-05-05 00:07 25.35929 40.72677 27167 ft 286 kts 81°
2026-05-05 00:07 25.36336 40.74829 27368 ft 287 kts 76°
2026-05-05 00:07 25.37059 40.76886 27549 ft 288 kts 65°
2026-05-05 00:07 25.37829 40.78933 27753 ft 289 kts 67°
2026-05-05 00:08 25.38568 40.80999 27981 ft 290 kts 68°
2026-05-05 00:08 25.39327 40.83072 28193 ft 291 kts 66°
2026-05-05 00:08 25.40098 40.85145 28407 ft 291 kts 67°
2026-05-05 00:08 25.40862 40.87224 28631 ft 292 kts 67°
2026-05-05 00:09 25.41628 40.89307 28845 ft 293 kts 66°
2026-05-05 00:09 25.42395 40.91394 29035 ft 293 kts 66°
2026-05-05 00:09 25.43163 40.93484 29269 ft 293 kts 67°
2026-05-05 00:09 25.43930 40.95574 29483 ft 294 kts 66°
2026-05-05 00:10 25.44702 40.97675 29707 ft 294 kts 66°
2026-05-05 00:10 25.45472 40.99778 29923 ft 295 kts 66°
2026-05-05 00:10 25.46233 41.01858 30113 ft 296 kts 66°
2026-05-05 00:10 25.47006 41.03967 30291 ft 296 kts 67°
2026-05-05 00:11 25.47779 41.06083 30465 ft 297 kts 67°
2026-05-05 00:11 25.48553 41.08203 30660 ft 298 kts 67°
2026-05-05 00:11 25.49331 41.10329 30840 ft 298 kts 67°
2026-05-05 00:11 25.50111 41.12464 30965 ft 302 kts 68°
2026-05-05 00:12 25.50910 41.14657 30983 ft 312 kts 67°
2026-05-05 00:12 25.52289 41.18441 30973 ft 325 kts 68°
2026-05-05 00:13 25.54009 41.23159 30975 ft 336 kts 68°
2026-05-05 00:13 25.55779 41.28019 30967 ft 345 kts 68°
2026-05-05 00:14 25.57591 41.33003 30971 ft 353 kts 68°
2026-05-05 00:14 25.59447 41.38112 30962 ft 362 kts 68°
2026-05-05 00:15 25.61345 41.43348 30962 ft 370 kts 68°
2026-05-05 00:15 25.63275 41.48675 30961 ft 376 kts 68°
2026-05-05 00:16 25.65216 41.54045 30957 ft 380 kts 68°
2026-05-05 00:16 25.67190 41.59507 30953 ft 383 kts 68°
2026-05-05 00:17 25.69177 41.65012 30950 ft 385 kts 68°
2026-05-05 00:17 25.71175 41.70556 30949 ft 387 kts 68°
2026-05-05 00:18 25.73178 41.76118 30950 ft 389 kts 68°
2026-05-05 00:18 25.75184 41.81703 30946 ft 391 kts 68°
2026-05-05 00:19 25.77185 41.87280 30946 ft 392 kts 68°
2026-05-05 00:19 25.79202 41.92908 30944 ft 393 kts 68°
2026-05-05 00:20 25.81221 41.98555 30942 ft 393 kts 68°
2026-05-05 00:20 25.83228 42.04169 30924 ft 393 kts 68°
2026-05-05 00:21 25.85247 42.09824 30926 ft 393 kts 68°
2026-05-05 00:21 25.87264 42.15482 30934 ft 394 kts 68°
2026-05-05 00:22 25.89279 42.21145 30917 ft 394 kts 68°
2026-05-05 00:22 25.91287 42.26794 30919 ft 392 kts 68°
2026-05-05 00:23 25.93281 42.32419 30915 ft 391 kts 68°
2026-05-05 00:23 25.95260 42.38000 30913 ft 390 kts 68°
2026-05-05 00:24 25.97242 42.43608 30916 ft 389 kts 68°
2026-05-05 00:24 25.99223 42.49212 30914 ft 390 kts 68°
2026-05-05 00:25 26.01210 42.54842 30916 ft 391 kts 68°
2026-05-05 00:25 26.03183 42.60443 30917 ft 392 kts 68°
2026-05-05 00:26 26.05172 42.66097 30912 ft 392 kts 68°
2026-05-05 00:26 26.07159 42.71748 30904 ft 393 kts 68°
2026-05-05 00:27 26.09145 42.77407 30927 ft 392 kts 68°
2026-05-05 00:27 26.11124 42.83069 30924 ft 393 kts 68°
2026-05-05 00:28 26.13097 42.88705 30917 ft 394 kts 68°
2026-05-05 00:28 26.15082 42.94395 30917 ft 394 kts 68°
2026-05-05 00:29 26.17069 43.00086 30921 ft 394 kts 68°
2026-05-05 00:29 26.18883 43.05846 30903 ft 393 kts 80°
2026-05-05 00:30 26.19783 43.11813 30918 ft 393 kts 82°
2026-05-05 00:30 26.20726 43.17809 30921 ft 393 kts 83°
2026-05-05 00:31 26.21635 43.23819 30906 ft 394 kts 83°
2026-05-05 00:31 26.22555 43.29816 30900 ft 392 kts 83°
2026-05-05 00:32 26.23463 43.35797 30898 ft 391 kts 83°
2026-05-05 00:32 26.24367 43.41754 30896 ft 389 kts 83°
2026-05-05 00:33 26.25262 43.47657 30892 ft 388 kts 83°
2026-05-05 00:33 26.26158 43.53594 30895 ft 389 kts 83°
2026-05-05 00:34 26.27056 43.59555 30891 ft 390 kts 83°
2026-05-05 00:34 26.27951 43.65525 30876 ft 391 kts 83°
2026-05-05 00:35 26.28848 43.71508 30877 ft 391 kts 83°
2026-05-05 00:35 26.29726 43.77487 30876 ft 390 kts 85°
2026-05-05 00:36 26.29840 43.83486 30870 ft 387 kts 94°
2026-05-05 00:36 26.29918 43.89487 30878 ft 387 kts 94°
2026-05-05 00:37 26.29954 43.95487 30880 ft 388 kts 94°
2026-05-05 00:37 26.30010 44.01474 30890 ft 389 kts 94°
2026-05-05 00:38 26.30051 44.07504 30883 ft 389 kts 94°
2026-05-05 00:38 26.30096 44.13536 30883 ft 389 kts 94°
2026-05-05 00:39 26.30135 44.19575 30883 ft 389 kts 94°
2026-05-05 00:39 26.30172 44.25607 30873 ft 389 kts 94°
2026-05-05 00:40 26.30205 44.31596 30872 ft 389 kts 94°
2026-05-05 00:40 26.30238 44.37623 30872 ft 389 kts 94°
2026-05-05 00:41 26.30267 44.43651 30873 ft 388 kts 94°
2026-05-05 00:41 26.30296 44.49661 30871 ft 388 kts 94°
2026-05-05 00:42 26.30321 44.55678 30881 ft 389 kts 94°
2026-05-05 00:42 26.30344 44.61702 30869 ft 389 kts 94°
2026-05-05 00:43 26.30364 44.67732 30873 ft 389 kts 94°
2026-05-05 00:43 26.30382 44.73723 30874 ft 388 kts 94°
2026-05-05 00:44 26.30397 44.79742 30872 ft 388 kts 94°
2026-05-05 00:44 26.30408 44.85763 30872 ft 388 kts 94°
2026-05-05 00:45 26.30419 44.91788 30870 ft 388 kts 94°
2026-05-05 00:45 26.30427 44.97773 30870 ft 388 kts 94°
2026-05-05 00:46 26.30428 45.03795 30871 ft 388 kts 94°
2026-05-05 00:46 26.30434 45.09803 30868 ft 388 kts 94°
2026-05-05 00:47 26.30429 45.15814 30869 ft 388 kts 94°
2026-05-05 00:47 26.30427 45.21822 30868 ft 387 kts 94°
2026-05-05 00:48 26.30419 45.27786 30870 ft 387 kts 94°
2026-05-05 00:48 26.30411 45.33785 30862 ft 387 kts 94°
2026-05-05 00:49 26.30399 45.39779 30862 ft 386 kts 94°
2026-05-05 00:49 26.30387 45.45766 30861 ft 386 kts 94°
2026-05-05 00:50 26.30371 45.51742 30861 ft 384 kts 94°
2026-05-05 00:50 26.30354 45.57701 30857 ft 384 kts 94°
2026-05-05 00:51 26.30333 45.63603 30857 ft 383 kts 95°
2026-05-05 00:51 26.30307 45.69544 30856 ft 383 kts 95°
2026-05-05 00:52 26.30282 45.75479 30860 ft 383 kts 95°
2026-05-05 00:52 26.30254 45.81420 30854 ft 382 kts 94°
2026-05-05 00:53 26.30222 45.87345 30854 ft 382 kts 95°
2026-05-05 00:53 26.30192 45.93267 30857 ft 382 kts 95°
2026-05-05 00:54 26.30156 45.99156 30858 ft 382 kts 94°
2026-05-05 00:54 26.30118 46.05072 30859 ft 380 kts 94°
2026-05-05 00:55 26.30080 46.10956 30862 ft 379 kts 95°
2026-05-05 00:55 26.30035 46.16836 30865 ft 379 kts 95°
2026-05-05 00:56 26.29991 46.22714 30865 ft 379 kts 95°
2026-05-05 00:56 26.29943 46.28591 30868 ft 379 kts 95°
2026-05-05 00:57 26.29894 46.34474 30866 ft 379 kts 95°
2026-05-05 00:57 26.29846 46.40350 30872 ft 379 kts 95°
2026-05-05 00:58 26.29791 46.46226 30869 ft 379 kts 95°
2026-05-05 00:58 26.29737 46.52107 30866 ft 379 kts 95°
2026-05-05 00:59 26.29677 46.57979 30864 ft 379 kts 95°
2026-05-05 00:59 26.29614 46.63829 30864 ft 375 kts 95°
2026-05-05 01:00 26.29551 46.69598 30865 ft 374 kts 95°
2026-05-05 01:00 26.29484 46.75394 30862 ft 374 kts 95°
2026-05-05 01:01 26.29415 46.81198 30862 ft 374 kts 95°
2026-05-05 01:01 26.29346 46.86996 30859 ft 374 kts 95°
2026-05-05 01:02 26.29286 46.91810 30859 ft 374 kts 95°
2026-05-05 01:02 26.29212 46.97602 30851 ft 374 kts 95°
2026-05-05 01:03 26.29134 47.03382 30853 ft 372 kts 95°
2026-05-05 01:03 26.29055 47.09152 30850 ft 372 kts 95°
2026-05-05 01:04 26.28973 47.14924 30847 ft 372 kts 95°
2026-05-05 01:04 26.28843 47.23561 30849 ft 372 kts 95°
2026-05-05 01:05 26.28736 47.29285 30849 ft 372 kts 95°
2026-05-05 01:05 26.28637 47.35049 30849 ft 372 kts 96°
2026-05-05 01:06 26.28531 47.40808 30845 ft 370 kts 95°
2026-05-05 01:06 26.28424 47.46542 30843 ft 370 kts 96°
2026-05-05 01:07 26.28314 47.52265 30844 ft 370 kts 96°
2026-05-05 01:07 26.28202 47.57957 30841 ft 370 kts 96°
2026-05-05 01:08 26.28087 47.63689 30840 ft 370 kts 96°
2026-05-05 01:08 26.28064 47.69434 30833 ft 374 kts 87°
2026-05-05 01:09 26.29161 47.75110 30833 ft 375 kts 79°
2026-05-05 01:09 26.30306 47.80777 30836 ft 375 kts 79°
2026-05-05 01:10 26.31471 47.86445 30843 ft 375 kts 79°
2026-05-05 01:10 26.32623 47.92117 30822 ft 375 kts 79°
2026-05-05 01:11 26.33770 47.97749 30820 ft 374 kts 79°
2026-05-05 01:11 26.34918 48.03412 30825 ft 374 kts 79°
2026-05-05 01:12 26.36065 48.09077 30826 ft 375 kts 79°
2026-05-05 01:12 26.37210 48.14744 30812 ft 375 kts 79°
2026-05-05 01:13 26.38356 48.20416 30818 ft 375 kts 79°
2026-05-05 01:13 26.39500 48.26103 30807 ft 375 kts 78°
2026-05-05 01:14 26.40637 48.31749 30780 ft 376 kts 78°
2026-05-05 01:14 26.41209 48.34614 30404 ft 379 kts 78°
2026-05-05 01:14 26.41781 48.37467 29923 ft 374 kts 78°
2026-05-05 01:15 26.42346 48.40269 29373 ft 366 kts 78°
2026-05-05 01:15 26.42895 48.43008 28897 ft 358 kts 78°
2026-05-05 01:15 26.43431 48.45705 28431 ft 356 kts 78°
2026-05-05 01:15 26.43971 48.48410 27951 ft 359 kts 78°
2026-05-05 01:16 26.44515 48.51143 27479 ft 361 kts 78°
2026-05-05 01:16 26.45061 48.53882 27000 ft 361 kts 78°
2026-05-05 01:16 26.45603 48.56609 26519 ft 358 kts 78°
2026-05-05 01:16 26.46140 48.59309 26047 ft 355 kts 78°
2026-05-05 01:17 26.46672 48.61986 25579 ft 352 kts 78°
2026-05-05 01:17 26.47193 48.64639 25118 ft 349 kts 78°
2026-05-05 01:17 26.47405 48.67327 24647 ft 347 kts 93°
2026-05-05 01:17 26.47153 48.69995 24195 ft 344 kts 100°
2026-05-05 01:18 26.46836 48.72643 23741 ft 344 kts 99°
2026-05-05 01:18 26.46538 48.75248 23275 ft 342 kts 99°
2026-05-05 01:18 26.46240 48.77874 22786 ft 340 kts 99°
2026-05-05 01:18 26.45935 48.80499 22334 ft 343 kts 99°
2026-05-05 01:19 26.45626 48.83148 21878 ft 346 kts 99°
2026-05-05 01:19 26.45318 48.85823 21420 ft 349 kts 99°
2026-05-05 01:19 26.45006 48.88514 20959 ft 349 kts 99°
2026-05-05 01:19 26.44693 48.91199 20483 ft 349 kts 99°
2026-05-05 01:20 26.44381 48.93880 20034 ft 348 kts 99°
2026-05-05 01:20 26.44069 48.96561 19576 ft 348 kts 98°
2026-05-05 01:20 26.43754 48.99248 19114 ft 351 kts 98°
2026-05-05 01:20 26.43437 49.01954 18654 ft 353 kts 98°
2026-05-05 01:21 26.43117 49.04675 18191 ft 354 kts 98°
2026-05-05 01:21 26.42796 49.07405 17685 ft 355 kts 98°
2026-05-05 01:21 26.42477 49.10132 17195 ft 354 kts 98°
2026-05-05 01:21 26.42154 49.12857 16736 ft 355 kts 98°
2026-05-05 01:22 26.41830 49.15581 16265 ft 353 kts 98°
2026-05-05 01:22 26.41512 49.18283 15799 ft 349 kts 98°
2026-05-05 01:22 26.41197 49.20949 15342 ft 345 kts 98°
2026-05-05 01:22 26.40883 49.23596 14892 ft 342 kts 98°
2026-05-05 01:23 26.40573 49.26214 14435 ft 340 kts 98°
2026-05-05 01:23 26.40263 49.28818 13990 ft 337 kts 98°
2026-05-05 01:23 26.39955 49.31411 13546 ft 336 kts 97°
2026-05-05 01:23 26.39655 49.33988 13073 ft 333 kts 98°
2026-05-05 01:24 26.39356 49.36532 12627 ft 328 kts 98°
2026-05-05 01:24 26.39060 49.39028 12315 ft 319 kts 98°
2026-05-05 01:24 26.38760 49.41492 12009 ft 324 kts 98°
2026-05-05 01:24 26.38455 49.43971 11597 ft 318 kts 98°
2026-05-05 01:25 26.38164 49.46393 11177 ft 312 kts 98°
2026-05-05 01:25 26.37878 49.48762 10773 ft 313 kts 98°
2026-05-05 01:25 26.37585 49.51156 10362 ft 309 kts 98°
2026-05-05 01:25 26.37299 49.53508 9953 ft 303 kts 98°
2026-05-05 01:26 26.36792 49.55771 9539 ft 301 kts 113°
2026-05-05 01:26 26.35796 49.57805 9128 ft 297 kts 127°
2026-05-05 01:26 26.34536 49.59608 8741 ft 293 kts 129°
2026-05-05 01:26 26.33296 49.61399 8347 ft 290 kts 128°
2026-05-05 01:27 26.32077 49.63178 7966 ft 288 kts 128°
2026-05-05 01:27 26.30856 49.64944 7586 ft 287 kts 128°
2026-05-05 01:27 26.29668 49.66656 7219 ft 267 kts 128°
2026-05-05 01:27 26.28577 49.68233 6878 ft 248 kts 128°
2026-05-05 01:28 26.27541 49.69731 6562 ft 241 kts 128°
2026-05-05 01:28 26.26517 49.71206 6245 ft 240 kts 128°
2026-05-05 01:28 26.25500 49.72674 5921 ft 238 kts 127°
2026-05-05 01:28 26.24488 49.74133 5602 ft 236 kts 127°
2026-05-05 01:29 26.23749 49.75732 5247 ft 235 kts 99°
2026-05-05 01:29 26.24008 49.77467 4903 ft 233 kts 62°
2026-05-05 01:29 26.25130 49.78721 4582 ft 228 kts 37°
2026-05-05 01:29 26.26394 49.79793 4267 ft 229 kts 38°
2026-05-05 01:30 26.27675 49.80889 3770 ft 231 kts 38°
2026-05-05 01:30 26.28939 49.81962 3282 ft 225 kts 38°
2026-05-05 01:30 26.30164 49.82992 2977 ft 215 kts 38°
2026-05-05 01:30 26.31421 49.83900 2700 ft 220 kts 21°
2026-05-05 01:31 26.32906 49.83853 2526 ft 217 kts 340°
2026-05-05 01:31 26.34015 49.82739 2307 ft 218 kts 305°
2026-05-05 01:31 26.35097 49.81603 2062 ft 216 kts 334°
2026-05-05 01:31 26.36481 49.81016 1976 ft 210 kts 349°
2026-05-05 01:32 26.37865 49.80875 1770 ft 187 kts
2026-05-05 01:32 26.39044 49.80821 1423 ft 160 kts 358°
2026-05-05 01:32 26.40106 49.80687 1103 ft 142 kts 351°
2026-05-05 01:32 26.41049 49.80472 933 ft 137 kts 350°
2026-05-05 01:33 26.41922 49.80242 805 ft 120 kts 346°
2026-05-05 01:33 26.42639 49.80030 680 ft 99 kts 345°
2026-05-05 01:33 26.43298 49.79829 577 ft 97 kts 343°
2026-05-05 01:33 26.43965 49.79633 424 ft 100 kts 344°
2026-05-05 01:34 26.44637 49.79436 268 ft 98 kts 343°
2026-05-05 01:34 26.45264 49.79242 122 ft 91 kts 343°
2026-05-05 01:34 26.45844 49.79062 80 ft 78 kts 343°
2026-05-05 01:34 26.46305 49.78926 84 ft 60 kts 344°
2026-05-05 01:35 26.46669 49.78816 80 ft 48 kts 347°
2026-05-05 01:35 26.46958 49.78728 81 ft 38 kts 350°
2026-05-05 01:35 26.47160 49.78726 81 ft 25 kts 13°
2026-05-05 01:35 26.47319 49.78772 80 ft 22 kts 15°
2026-05-05 01:36 26.47445 49.78824 81 ft 18 kts 57°
2026-05-05 01:36 26.47405 49.78912 79 ft 14 kts 165°
2026-05-05 01:36 26.47316 49.78939 81 ft 13 kts 164°
2026-05-05 01:36 26.47226 49.78967 79 ft 14 kts 164°
2026-05-05 01:37 26.47131 49.78997 80 ft 14 kts 165°
2026-05-05 01:37 26.47032 49.79028 79 ft 15 kts 165°
2026-05-05 01:37 26.46929 49.79058 81 ft 16 kts 166°
2026-05-05 01:37 26.46826 49.79091 79 ft 16 kts 164°
2026-05-05 01:38 26.46719 49.79124 82 ft 16 kts 165°
2026-05-05 01:38 26.46608 49.79157 80 ft 17 kts 165°
2026-05-05 01:38 26.46494 49.79193 79 ft 17 kts 162°
2026-05-05 01:38 26.46417 49.79258 79 ft 14 kts 87°
2026-05-05 01:39 26.46441 49.79359 80 ft 14 kts 74°
2026-05-05 01:39 26.46465 49.79464 79 ft 13 kts 99°
2026-05-05 01:39 26.46401 49.79505 79 ft 10 kts 178°
2026-05-05 01:39 26.46343 49.79498 79 ft 7 kts 221°
2026-05-05 01:40 26.46335 49.79457 82 ft 7 kts 265°
2026-05-05 01:40 26.46332 49.79420 79 ft 3 kts 266°
2026-05-05 01:40 26.46331 49.79411 79 ft 2 kts 265°
2026-05-05 01:40 26.46331 49.79408 79 ft 0 kts 266°